Current weather by "City, St" or "zip code"  
 

Current Conditions: Broken Bow, Broken Bow Municipal Airport, NE

Overcast


29.0 F

Last Updated on Oct 24 2020, 11:53 am CDT
Humidity: 78%
Wind Speed: SE 12.7 mph
Barometer 30.11 in
Dewpoint: 23.0 F
Visibility: 10.00 mi
Precip: --
Heat Index: NA
Wind Chill: 19 F
Current conditions at:

Broken Bow, Broken Bow Municipal Airport, NE (KBBW)

Lat: 41.43333 Lon: 99.65

Local Radar Image active severe weather and emergency alerts image image weather storm and storm spotter reports image weather observation monitoring service image
Local
Radar
Active
Alerts
Storm Reports Obs
Monitoring

Sign-up For Email & Text Message Weather Alert Notification Services



Advertise Here

Observation History for Broken Bow, Broken Bow Municipal Airport, NE


Time Wind
(mph)
Vis
(mi)
Weather Precip (in) Temperature (F) Relative
Humidity
Wind
Chill
(F)
Heat
Index
(F)
Pressure
Air Dwpt altimeter
(in)
sea level
(mb)
Rmks
11:53 am CDT SE 12.7 10.00 Overcast -- 29.0 23.0 78% 19 NA 30.11 1022.4
10:53 am CDT SE 13.8 G 24.2 10.00 Overcast -- 29.0 23.0 78% 18 NA 30.12 1022.6
9:53 am CDT SE 16.1 10.00 Overcast -- 28.0 23.0 81% 16 NA 30.14 1023.4
8:53 am CDT SE 13.8 10.00 Overcast -- 28.0 24.1 85% 17 NA 30.13 1023.2
7:53 am CDT SE 9.2 10.00 Overcast -- 27.0 23.0 85% 18 NA 30.15 1023.7
6:53 am CDT SE 12.7 10.00 Overcast -- 27.0 21.9 81% 16 NA 30.16 1024.1
5:53 am CDT SE 13.8 10.00 Overcast -- 27.0 21.9 81% 16 NA 30.17 1024.5
4:53 am CDT SE 11.5 10.00 Overcast -- 27.0 21.0 78% 17 NA 30.19 1025.1
3:53 am CDT SE 12.7 10.00 Overcast -- 26.0 21.0 81% 15 NA 30.21 1025.8
2:53 am CDT SE 10.4 10.00 Overcast -- 27.0 21.0 78% 17 NA 30.25 1027.1
1:53 am CDT SE 10.4 10.00 Overcast -- 26.0 19.9 78% 16 NA 30.27 1027.8
12:53 am CDT SE 9.2 10.00 Overcast -- 26.0 19.9 78% 17 NA 30.29 1028.7
11:53 pm CDT S 8.1 10.00 Overcast -- 26.0 19.9 78% 17 NA 30.32 1029.7
10:53 pm CDT SE 6.9 10.00 Overcast -- 27.0 19.9 75% 20 NA 30.33 1030.0
9:53 pm CDT E 4.6 10.00 Overcast -- 27.0 19.9 75% 22 NA 30.35 1030.5
8:53 pm CDT NE 6.9 10.00 Overcast -- 27.0 19.9 75% 20 NA 30.36 1031.0
7:53 pm CDT N 8.1 10.00 Overcast -- 28.0 19.9 72% 20 NA 30.38 1031.7
6:53 pm CDT N 6.9 10.00 Overcast -- 28.0 19.9 72% 21 NA 30.38 1031.8
5:53 pm CDT N 8.1 10.00 Overcast -- 29.0 21.0 72% 21 NA 30.40 1032.2
4:53 pm CDT NW 9.2 10.00 Overcast -- 30.0 21.0 69% 22 NA 30.40 1032.0
3:53 pm CDT N 12.7 10.00 Overcast -- 30.0 21.9 72% 20 NA 30.41 1032.6
2:53 pm CDT NW 11.5 10.00 Overcast -- 30.0 21.9 72% 20 NA 30.44 1033.6
1:53 pm CDT NW 15.0 10.00 Overcast -- 29.0 23.0 78% 18 NA 30.46 1034.2
12:53 pm CDT NW 13.8 10.00 Overcast -- 30.0 24.1 79% 19 NA 30.46 1034.2

Regional Weather Observation


Thedford, Thomas County Airport, NE (KTIF)

Overcast
29.0 F

North Platte, North Platte Regional Airport, NE (KLBF)

Overcast
31.0 F

Ord, Evelyn Sharp Field Airport, NE (KODX)

Overcast
28.0 F

Ainsworth Regional Airport, NE (KANW)

Overcast
28.0 F

Lexington, Jim Kelly Field Airport, NE (KLXN)

Overcast
31.0 F

Kearney, Kearney Municipal Airport, NE (KEAR)

Overcast
31.0 F